Temperature
23 25 24 24 24 24 24 24 23 23 23 23 23 23 23 22 21 21 21 21 20 20 19 19 18 18 18 18 18 17 17 17 17 16 16 16 16 16 15 15 15 15 15 15
24 24 24 23 23 23 24 24 24 23 23 23 23 23 23 22 21 21 21 21 20 20 19 19 18 18 18 18 18 17 17 17 17 16 16 16 16 16 15 15 15 15 15 15
24 24 23 23 23 23 23 23 23 23 23 23 23 23 23 23 21 20 20 20 20 19 19 19 18 18 18 18 18 17 17 17 17 16 16 16 16 16 15 15 15 15 15 15
24 23 23 23 23 23 23 23 23 23 23 23 23 23 24 23 22 21 21 20 19 19 19 18 18 18 18 17 17 17 17 17 16 16 16 16 16 16 15 15 15 15 15 15
23 23 23 23 23 23 23 23 23 23 23 23 23 23 24 23 22 22 21 20 19 19 18 18 18 18 18 17 17 17 17 17 16 16 16 16 15 15 15 15 15 15 15 15
23 23 23 23 23 23 23 23 23 23 23 23 23 23 23 23 23 22 22 20 19 19 18 18 17 17 17 17 17 17 17 16 16 16 16 16 15 15 15 15 15 15 15 15
22 23 23 23 23 23 23 23 23 22 22 23 23 23 23 23 22 22 21 20 19 18 18 17 17 17 17 17 17 17 16 16 16 16 16 16 15 15 15 15 15 15 15 15
22 22 23 23 23 23 23 23 22 22 22 23 22 23 23 22 21 20 20 19 18 18 18 17 17 17 17 17 17 16 16 16 16 16 16 15 15 15 15 15 15 15 14 14
22 22 22 22 22 23 23 23 23 23 22 22 23 23 22 21 21 20 20 19 18 18 17 17 17 17 17 17 17 16 16 16 16 16 16 15 15 15 15 15 15 14 14 14
22 22 22 22 22 21 22 23 22 22 21 21 22 23 23 22 21 21 20 19 18 17 17 17 16 16 17 16 16 16 16 16 16 16 16 15 15 15 15 15 14 14 14 14
22 22 21 22 22 22 22 22 22 22 22 21 21 22 22 22 21 20 19 18 17 17 17 16 16 16 16 16 16 16 16 16 16 16 15 15 15 15 15 15 15 14 14 14
21 21 21 21 21 21 22 22 22 21 21 21 21 22 22 21 20 20 19 18 17 16 16 16 16 16 16 16 16 16 16 16 15 16 15 15 15 15 15 15 15 14 14 14
20 21 21 21 20 20 21 21 21 21 21 21 21 22 21 21 20 19 18 17 17 16 16 16 15 15 15 16 16 16 16 15 15 15 15 15 15 15 15 15 14 14 14 14
19 21 21 20 21 21 20 20 20 20 21 21 21 22 21 21 20 19 18 17 17 16 16 15 15 15 15 15 15 15 15 15 15 15 15 15 15 15 15 14 14 14 14 14
19 20 20 20 20 19 20 20 20 20 21 21 21 21 21 21 20 19 18 17 16 16 15 15 15 15 15 15 15 15 15 15 15 15 15 15 15 15 14 14 14 14 14 14
19 19 19 19 19 19 19 19 20 20 20 20 20 20 21 20 19 18 17 17 16 16 15 15 15 15 15 15 15 15 15 15 14 14 14 14 14 14 14 14 14 14 14 13
19 19 19 19 19 18 19 20 20 19 20 20 20 21 20 19 18 17 17 16 15 15 15 14 14 14 14 14 14 14 14 14 14 14 14 14 14 14 14 14 14 14 13 13
18 18 18 18 18 18 20 20 19 19 19 20 20 20 19 18 17 16 16 15 15 14 14 14 14 14 14 14 14 13 14 14 14 13 13 13 13 13 13 13 13 13 13 13
17 18 18 18 18 19 20 19 18 18 19 19 19 18 17 16 16 16 15 14 14 14 14 13 13 13 13 13 13 13 13 13 13 13 13 13 13 13 13 13 13 13 13 13
16 17 17 17 17 18 19 18 17 18 18 18 17 17 16 16 18 18 15 14 14 13 13 13 13 13 13 13 13 13 13 13 13 13 13 13 13 13 13 13 13 12 12 12
16 16 16 17 17 18 18 16 17 17 18 17 16 16 15 16 17 15 14 13 13 13 13 13 13 13 13 12 12 12 12 12 12 12 12 12 12 12 12 12 12 12 12 12
17 17 16 17 17 17 16 16 17 17 16 15 15 15 14 14 14 13 13 12 12 12 12 12 12 12 12 12 12 12 11 11 12 12 12 12 12 12 12 12 12 12 12 11
16 17 17 17 17 16 15 15 15 14 15 14 14 14 13 13 13 12 12 12 12 12 12 12 12 12 11 11 11 11 11 11 11 11 11 11 11 11 11 11 11 11 11 11
16 14 15 16 16 15 14 14 13 13 13 13 13 13 13 12 12 12 12 11 11 11 11 11 11 11 11 11 11 11 11 11 11 11 10 10 10 10 11 11 11 11 11 10
15 14 15 15 15 14 13 13 13 12 12 12 12 12 12 12 11 11 11 11 11 10 10 10 10 10 10 10 10 10 10 10 10 10 10 10 10 10 10 10 10 10 10 10
14 14 15 15 15 15 14 13 12 12 12 12 12 11 11 11 11 11 10 10 10 10 10 9 9 9 9 10 10 10 9 9 9 9 9 9 9 9 9 9 9 10 10 10
Wind_Speed
2 3 3 3 1 0 1 2 1 1 1 3 4 4 3 4 4 5 5 5 4 4 3 4 4 5 4 4 4 3 4 4 3 3 2 2 2 1 1 1 1 1 0 1
5 3 1 2 3 3 3 2 1 1 2 3 3 4 3 3 4 4 4 4 4 3 3 4 5 5 5 4 4 4 4 4 4 2 2 1 1 1 1 1 1 1 0 1
3 2 3 4 4 4 3 3 2 2 2 4 4 4 4 3 3 3 4 4 4 4 4 4 5 5 5 6 5 4 5 5 4 4 2 2 2 2 2 2 1 0 0 1
3 2 3 4 3 3 2 1 3 4 5 3 3 3 2 3 3 2 3 4 4 3 4 3 4 6 6 6 5 5 5 5 5 5 4 3 2 2 2 1 2 2 1 1
3 2 3 3 1 3 1 0 3 5 5 5 4 4 1 2 1 1 2 3 3 3 3 3 3 5 6 6 5 5 5 5 5 5 4 4 3 2 2 2 2 2 2 2
2 1 1 2 1 2 2 3 4 5 5 5 3 5 1 1 1 1 1 1 2 2 2 2 2 2 3 5 5 5 5 5 5 5 5 4 3 3 3 3 2 2 2 2
4 4 2 1 3 3 4 5 4 4 4 2 1 4 0 3 2 2 1 1 0 1 1 1 1 2 3 4 5 6 6 5 5 5 5 4 4 3 3 3 3 2 2 2
6 5 3 2 3 3 4 6 4 3 3 2 3 4 1 2 1 1 1 1 1 1 1 1 1 2 2 3 5 6 6 6 6 5 5 4 4 3 3 3 3 3 2 2
4 3 2 0 2 4 4 4 4 5 5 5 3 2 2 2 1 1 2 2 2 1 1 1 1 1 2 2 4 5 6 6 6 5 5 4 4 4 3 3 3 2 3 2
4 4 3 2 4 0 3 3 4 5 4 5 5 5 3 2 1 1 1 2 2 2 1 1 1 1 1 2 2 3 4 5 5 5 5 4 4 4 4 3 3 3 3 3
5 5 4 4 5 5 5 5 5 5 5 5 5 1 2 1 0 0 1 2 2 2 2 1 1 1 1 2 2 3 3 4 4 5 5 5 5 4 4 4 4 4 4 4
4 5 6 5 2 3 6 6 7 7 6 6 6 2 4 1 1 0 0 1 2 2 2 2 1 2 1 1 1 2 3 3 4 4 4 5 5 4 5 4 4 4 4 4
3 5 6 5 5 6 6 6 6 7 7 8 8 3 4 1 0 0 1 1 1 2 2 2 2 1 1 0 0 1 1 2 3 4 4 4 5 5 6 5 4 4 4 4
3 6 8 8 4 4 7 8 8 9 9 10 10 9 4 3 2 1 1 1 1 1 1 2 1 1 1 1 1 1 1 2 3 3 4 4 5 5 5 5 5 5 5 5
4 7 8 8 6 7 10 11 11 13 13 11 10 10 9 6 4 3 3 2 1 0 1 1 1 1 1 1 1 1 2 2 2 3 4 4 4 4 4 5 5 5 5 5
4 6 7 9 7 8 12 12 12 13 13 14 13 12 6 4 3 3 3 2 2 2 2 2 2 2 2 2 2 2 2 2 2 3 3 3 3 3 4 4 5 5 5 5
4 6 7 8 5 8 11 11 12 11 10 10 12 9 4 4 4 4 3 3 3 3 3 3 3 3 3 2 2 2 2 2 2 3 3 3 3 3 4 4 5 5 5 5
6 7 5 6 6 9 3 2 5 9 9 9 9 6 5 5 3 3 2 3 3 3 3 3 3 3 3 3 3 3 3 2 2 2 2 3 4 4 4 5 5 6 6 6
7 7 6 6 8 9 5 3 4 7 7 5 6 5 3 1 2 3 1 2 4 4 4 3 3 3 3 3 3 3 3 3 3 3 4 4 4 5 5 6 6 6 6 6
6 8 8 7 8 7 3 2 1 5 7 3 4 4 3 3 6 3 2 3 4 3 3 3 3 3 3 3 3 4 4 4 4 4 5 5 5 5 6 6 6 6 6 7
6 6 9 11 10 8 1 1 2 6 3 0 3 4 4 5 6 4 3 3 3 3 3 2 2 3 3 3 3 4 4 5 5 5 5 5 6 6 6 6 5 6 6 6
7 6 8 8 9 7 3 3 4 3 4 2 3 4 5 5 4 4 4 4 4 4 3 3 3 3 4 4 4 5 5 5 5 5 6 6 6 5 5 5 5 6 6 7
7 6 5 6 4 1 2 3 3 4 4 4 4 4 4 4 5 4 4 4 4 4 4 4 4 4 4 4 5 6 6 5 6 6 6 6 6 5 5 5 6 6 6 6
5 4 5 6 6 5 5 5 5 5 5 5 4 4 4 5 5 5 4 4 4 4 4 4 5 5 5 5 6 6 6 6 6 6 6 6 6 6 5 5 5 5 6 6
5 5 6 9 7 6 6 6 6 5 5 4 4 4 4 4 5 5 5 5 5 5 5 5 5 6 6 6 6 6 6 6 6 7 6 6 6 6 6 6 6 7 7 7
7 8 8 9 7 7 7 6 6 6 6 5 4 4 4 4 4 5 5 5 5 5 5 6 6 7 7 7 7 6 6 6 7 7 6 6 5 5 6 6 6 6 7 7
Wind_Direction
171 182 166 161 172 86 151 184 190 148 165 223 228 240 235 191 205 220 213 208 210 215 203 198 200 200 200 199 197 193 189 178 176 182 191 188 178 175 151 119 107 113 103 123
178 169 123 135 160 186 201 215 212 156 162 234 253 260 246 214 213 225 230 217 219 228 208 198 204 204 206 204 205 201 199 185 185 193 194 189 182 176 145 125 103 91 113 142
184 105 132 161 171 196 221 251 258 245 199 212 256 245 209 188 194 209 227 231 224 230 237 214 207 208 209 210 207 207 201 188 186 187 177 165 168 184 174 167 164 125 149 159
180 153 174 187 198 240 246 264 247 235 242 236 248 282 172 176 186 199 212 215 223 228 241 231 214 210 210 211 203 206 199 192 186 186 191 195 208 208 199 185 165 167 166 174
165 164 194 208 225 252 300 335 231 237 251 255 234 266 157 145 195 210 202 203 211 223 238 232 218 212 209 204 200 199 193 190 186 192 193 205 214 217 201 188 175 180 159 172
178 180 256 262 242 227 180 183 186 216 239 244 252 254 252 91 356 7 109 168 196 216 227 237 214 198 192 189 188 190 189 188 186 190 193 199 206 213 208 206 198 191 173 177
189 183 176 219 204 177 220 243 233 219 220 235 166 248 256 52 22 350 344 25 75 176 208 216 198 190 181 181 184 186 187 190 189 194 197 197 202 214 220 217 209 209 196 191
213 198 183 221 253 241 233 254 263 275 267 256 205 240 120 79 36 360 358 36 56 80 104 159 181 177 185 183 184 190 192 194 194 198 202 206 201 208 218 221 216 216 211 202
227 206 150 274 277 255 231 237 277 279 273 269 236 207 179 150 112 66 68 67 49 46 54 87 140 161 175 180 189 195 195 195 198 201 203 209 209 209 215 224 220 219 218 209
252 237 187 184 192 104 277 221 230 250 264 260 248 238 224 174 144 59 53 53 36 34 37 47 85 140 155 170 182 184 195 195 197 200 201 206 213 214 219 221 224 224 219 213
245 241 210 204 223 226 205 214 233 247 263 274 271 241 79 69 45 342 30 49 34 22 22 33 51 106 124 142 157 176 179 192 196 201 203 207 211 210 213 219 223 225 223 218
227 249 241 229 217 280 250 242 237 251 250 254 272 270 99 79 49 305 52 62 49 37 37 46 57 74 92 117 150 177 189 196 200 204 210 213 214 212 216 220 220 221 221 220
204 239 244 221 208 210 227 230 239 255 258 249 253 250 120 68 31 158 177 99 74 58 58 57 57 56 55 83 165 215 216 215 210 207 211 216 220 219 220 222 223 223 221 216
243 246 251 260 277 256 242 233 232 240 248 251 251 267 257 280 266 219 200 169 96 53 54 49 30 2 336 322 308 288 274 232 216 214 218 223 228 227 228 225 224 224 222 222
234 253 255 266 269 263 261 252 236 237 248 257 264 269 279 276 263 238 215 205 219 319 6 2 347 336 309 300 306 308 297 264 226 222 229 232 233 229 228 227 225 225 228 232
233 252 256 256 248 254 260 254 241 241 246 250 260 266 282 288 253 234 224 222 239 267 281 296 304 307 297 290 285 291 293 287 253 235 240 243 241 235 230 228 228 228 229 236
226 240 250 261 255 262 254 244 235 234 237 245 252 262 269 254 242 240 236 236 249 265 280 289 293 295 294 290 284 276 275 280 261 246 242 243 242 239 239 237 231 230 232 234
234 236 246 264 257 248 252 145 231 239 247 248 258 271 259 254 252 251 243 248 260 274 280 285 294 299 303 299 287 275 265 260 261 263 264 258 250 246 246 245 243 240 239 236
232 229 236 246 254 265 252 217 221 237 250 249 250 260 258 216 240 241 264 271 274 278 277 276 286 295 300 301 293 280 269 266 264 263 264 268 262 252 247 246 247 247 244 242
207 223 233 235 250 257 259 129 257 248 246 212 235 242 230 221 250 266 341 296 288 289 282 280 279 285 294 301 293 279 276 272 271 269 266 265 264 258 252 250 248 249 246 245
193 210 226 236 246 259 332 116 185 231 292 172 242 246 236 247 288 306 295 300 290 286 286 287 278 282 290 294 287 280 282 282 287 280 272 268 264 263 261 258 253 249 247 246
215 216 222 229 240 248 116 162 214 293 350 308 267 257 257 276 301 301 292 292 287 280 282 284 279 282 285 282 278 279 282 289 291 284 275 269 267 264 260 258 256 251 247 245
226 234 240 231 248 13 183 234 289 311 295 293 278 270 265 273 285 290 288 288 287 284 282 280 279 283 284 279 273 274 280 286 287 283 278 273 269 264 260 257 256 251 246 246
221 227 240 249 252 259 264 264 273 279 279 284 276 267 260 269 277 279 282 286 290 291 288 283 279 279 281 281 276 276 280 278 278 278 277 274 270 267 263 261 259 257 252 250
238 208 235 252 263 272 259 264 272 275 274 271 274 270 266 270 275 276 279 282 287 290 288 283 278 278 280 282 278 278 276 273 273 273 273 273 271 270 266 262 262 260 260 262
227 228 240 258 265 267 273 281 274 263 261 265 269 273 273 274 277 279 282 285 287 288 288 284 282 282 283 283 280 278 273 268 268 269 270 269 267 266 265 265 267 263 259 264
Height
1532 1531 1532 1532 1532 1533 1534 1536 1537 1537 1538 1539 1539 1538 1539 1542 1543 1543 1544 1545 1546 1547 1548 1549 1550 1551 1551 1552 1553 1553 1554 1554 1555 1555 1556 1556 1556 1556 1556 1556 1556 1556 1556 1556
1531 1532 1533 1534 1535 1535 1534 1536 1536 1537 1538 1538 1537 1537 1536 1539 1541 1542 1542 1543 1545 1546 1547 1547 1548 1549 1550 1551 1551 1552 1553 1553 1554 1554 1555 1555 1555 1556 1556 1555 1555 1556 1556 1556
1531 1533 1534 1534 1535 1535 1535 1536 1536 1537 1538 1537 1538 1536 1534 1536 1539 1541 1541 1542 1543 1544 1545 1545 1546 1547 1548 1549 1549 1550 1551 1552 1552 1553 1554 1554 1555 1555 1555 1555 1555 1555 1555 1555
1531 1533 1534 1534 1534 1534 1536 1534 1536 1537 1537 1536 1537 1539 1531 1532 1535 1537 1539 1540 1541 1542 1543 1543 1544 1544 1545 1547 1548 1549 1550 1550 1551 1552 1553 1553 1554 1555 1555 1555 1554 1554 1554 1555
1532 1533 1533 1534 1534 1534 1534 1535 1535 1535 1535 1535 1534 1536 1530 1530 1533 1533 1536 1538 1539 1540 1541 1541 1542 1542 1543 1544 1546 1547 1548 1549 1550 1551 1551 1552 1553 1553 1554 1554 1554 1554 1554 1554
1532 1534 1534 1533 1534 1535 1535 1536 1535 1534 1533 1540 1534 1536 1533 1528 1530 1531 1534 1536 1537 1538 1539 1539 1540 1540 1541 1542 1543 1545 1546 1547 1548 1549 1550 1551 1551 1552 1552 1553 1553 1553 1553 1553
1534 1533 1534 1535 1534 1535 1533 1535 1540 1541 1541 1538 1532 1534 1532 1529 1531 1532 1534 1535 1536 1537 1537 1537 1538 1538 1539 1540 1541 1543 1544 1546 1547 1548 1549 1549 1550 1550 1551 1551 1551 1552 1552 1552
1536 1537 1533 1534 1533 1533 1532 1532 1541 1547 1544 1535 1533 1533 1529 1531 1533 1534 1534 1535 1536 1536 1536 1536 1536 1537 1537 1538 1539 1541 1543 1544 1545 1546 1547 1548 1548 1549 1549 1549 1550 1550 1550 1550
1533 1536 1534 1535 1535 1533 1533 1533 1531 1535 1536 1539 1531 1528 1528 1530 1532 1533 1534 1534 1534 1535 1535 1535 1535 1535 1536 1536 1538 1539 1541 1542 1543 1544 1545 1546 1547 1547 1547 1548 1548 1548 1549 1549
1531 1535 1533 1535 1535 1536 1533 1532 1534 1537 1543 1542 1534 1529 1527 1528 1529 1531 1532 1533 1534 1534 1534 1534 1534 1534 1535 1535 1536 1537 1539 1540 1541 1542 1543 1544 1545 1545 1546 1546 1546 1546 1547 1547
1532 1534 1534 1533 1533 1533 1535 1535 1533 1533 1535 1540 1540 1532 1523 1526 1528 1530 1532 1533 1533 1533 1533 1533 1533 1533 1534 1534 1535 1536 1537 1538 1539 1540 1541 1542 1542 1543 1544 1544 1544 1544 1544 1545
1533 1532 1533 1532 1533 1534 1531 1530 1531 1537 1535 1535 1536 1533 1525 1527 1529 1531 1532 1533 1533 1533 1533 1533 1533 1533 1533 1533 1534 1534 1535 1536 1537 1538 1539 1539 1540 1541 1541 1541 1542 1542 1542 1542
1534 1533 1536 1536 1537 1535 1533 1532 1532 1531 1532 1533 1536 1531 1526 1527 1528 1530 1531 1532 1532 1532 1532 1532 1532 1532 1532 1532 1532 1533 1534 1534 1535 1536 1536 1537 1537 1538 1538 1539 1539 1539 1539 1540
1535 1531 1533 1536 1531 1530 1532 1533 1533 1533 1532 1530 1529 1525 1523 1525 1527 1529 1530 1531 1531 1532 1532 1531 1531 1531 1531 1531 1531 1531 1531 1532 1532 1533 1534 1534 1534 1535 1536 1536 1536 1537 1537 1537
1534 1531 1529 1529 1530 1531 1530 1529 1530 1530 1527 1528 1523 1523 1521 1523 1525 1527 1529 1529 1530 1530 1530 1530 1530 1530 1530 1530 1529 1529 1529 1530 1530 1531 1531 1532 1532 1532 1532 1533 1533 1534 1534 1534
1532 1531 1530 1530 1530 1531 1530 1526 1525 1525 1524 1523 1523 1522 1520 1523 1525 1526 1527 1528 1528 1528 1529 1529 1529 1528 1528 1528 1527 1527 1527 1527 1528 1528 1528 1529 1529 1529 1529 1529 1530 1530 1530 1530
1530 1530 1532 1528 1528 1530 1527 1519 1520 1521 1520 1520 1520 1518 1520 1522 1523 1524 1525 1526 1526 1527 1527 1527 1527 1526 1526 1526 1525 1525 1525 1525 1525 1525 1526 1526 1526 1526 1526 1526 1526 1526 1526 1527
1530 1530 1530 1529 1529 1533 1517 1516 1517 1517 1517 1517 1517 1518 1520 1521 1522 1523 1523 1524 1524 1525 1524 1524 1524 1524 1524 1523 1523 1523 1523 1522 1522 1523 1523 1523 1523 1523 1523 1523 1523 1523 1523 1523
1530 1529 1530 1529 1527 1519 1515 1515 1517 1517 1515 1516 1516 1518 1519 1521 1521 1521 1521 1522 1522 1522 1522 1522 1521 1521 1521 1520 1520 1520 1520 1520 1519 1519 1519 1519 1520 1519 1519 1519 1519 1519 1519 1519
1530 1528 1528 1529 1530 1524 1513 1515 1517 1518 1514 1514 1516 1517 1518 1519 1516 1516 1519 1519 1519 1519 1519 1519 1518 1518 1518 1518 1517 1517 1517 1517 1516 1516 1516 1516 1516 1516 1515 1515 1515 1515 1515 1514
1527 1527 1527 1525 1524 1514 1513 1517 1518 1520 1513 1514 1515 1516 1517 1516 1516 1517 1516 1517 1517 1516 1516 1516 1516 1515 1515 1514 1514 1514 1513 1513 1513 1512 1512 1512 1512 1511 1511 1511 1511 1510 1510 1510
1520 1521 1522 1521 1522 1517 1515 1516 1516 1514 1514 1514 1514 1515 1515 1515 1514 1514 1514 1514 1514 1513 1513 1513 1512 1512 1512 1511 1511 1510 1509 1509 1509 1509 1508 1508 1507 1507 1507 1507 1506 1506 1505 1505
1517 1516 1514 1515 1515 1514 1515 1515 1515 1515 1514 1513 1513 1513 1513 1512 1512 1512 1511 1511 1510 1510 1510 1509 1509 1509 1508 1508 1507 1506 1506 1506 1505 1504 1504 1503 1503 1502 1502 1502 1501 1501 1501 1500
1515 1518 1517 1514 1512 1513 1514 1514 1513 1513 1513 1512 1511 1511 1510 1510 1509 1509 1509 1508 1507 1507 1506 1506 1505 1505 1504 1504 1503 1503 1502 1501 1501 1500 1500 1499 1498 1498 1497 1497 1497 1496 1495 1495
1513 1515 1513 1511 1511 1512 1511 1511 1511 1510 1510 1509 1509 1508 1507 1507 1506 1506 1505 1505 1504 1503 1503 1502 1501 1500 1500 1499 1499 1498 1497 1497 1496 1496 1495 1495 1494 1493 1492 1492 1491 1490 1490 1490
1511 1511 1510 1507 1508 1508 1508 1508 1508 1507 1507 1506 1506 1505 1504 1504 1503 1503 1502 1501 1500 1500 1499 1498 1497 1497 1496 1495 1494 1493 1493 1492 1492 1491 1491 1490 1489 1488 1487 1486 1485 1484 1484 1483